シュスター彗星

106P/Schuster (2014)

English version
Home page
Updated on June 11, 2016

---------------------------------------------------------------------

・ プロフィール

・ 写真集

・ 軌道要素

Epoch 2014 July 2.0 TT = JDT 2456840.5
T 2014 July 20.15094 TT                                 MPCW
q   1.5460511            (2000.0)            P               Q
n   0.13540756     Peri.  355.91552     +0.68550493     -0.67775258
a   3.7558431      Node    50.54371     +0.67736930     +0.45976572
e   0.5883611      Incl.   20.14872     +0.26693410     +0.57381785
P   7.28
From 264 observations 1977 Sept. 6-2014 Nov. 18, mean residual 0".8.
     Nongravitational parameters A1 = +0.08, A2 = +0.0085.

・ 星図

・ 光度変化

        m1 = 9.5 + 5 logΔ + 25 log r(t + 15)

---------------------------------------------------------------------

軌道要素はM.P.E.C. 2015-A10に掲載されたものです。
星図はステラナビゲータ Ver.8 (アストロアーツ) で作成したものです。
光度グラフはComet for Windowsで作成したものです。

---------------------------------------------------------------------

Copyright(C) Seiichi Yoshida (comet@aerith.net). All rights reserved.